Regional Weather Roundup
Issued by NWS Grand Forks, ND

Home | Current Version | Previous Version | Graphics & Text | Print | Product List | Glossary On
Versions: 1 2 3 4 5 6 7 8 9 10 11 12 13 14 15 16 17 18 19 20 21 22 23 24 25 26 27 28 29 30 31 32 33 34 35 36 37 38 39 40 41 42 43 44 45 46 47 48 49 50
000
ASUS43 KFGF 281310
RWRFGF
PRAIRIE TO PINES  WEATHER ROUNDUP
NATIONAL WEATHER SERVICE EASTERN NORTH DAKOTA/GRAND FORKS ND
800 AM CDT SAT MAY 28 2016

 **SATELLITE DATA USED TO AUGMENT SKY COVER AT AUTOMATED STATIONS**
 *****  WEATHER ACROSS EASTERN NORTH DAKOTA  *****

CITY           SKY/WX    TMP DP  RH WIND       PRES   REMARKS
GRAND FORKS    CLOUDY    64  55  72 CALM      29.83S
GRAND FRKS AFB PTSUNNY   63  57  81 SE2       29.84S
GRAND FRKS NWS   N/A     61 N/A N/A NW2         N/A
DEVILS LAKE    CLOUDY    56  55  97 N6        29.88R FOG
FARGO          MOSUNNY   62  57  83 NE7       29.80S
WAHPETON ARPT  MOSUNNY   61  54  77 NE7       29.80S
$$

 ***** WEATHER ACROSS CENTRAL AND WESTERN NORTH DAKOTA  *****

CITY           SKY/WX    TMP DP  RH WIND       PRES   REMARKS
BISMARCK       CLOUDY    58  55  90 E8        29.87S FOG
MINOT          CLOUDY    57  53  86 N8        29.89S
JAMESTOWN      CLOUDY    61  58  90 N12       29.83S
MINOT AFB      CLOUDY    54  52  92 N8        29.89S
GARRISON         N/A     56  54  93 NE6       29.88S
WILLISTON      CLOUDY    56  52  86 E9        29.89S
DICKINSON      FOG       49  49 100 E9        29.86R VSB 1/4
HETTINGER      CLOUDY    56  49  77 NW3       29.88R
$$

 *****  OTHER AIRPORT OBSERVATIONS IN OUR AREA  *****

CITY           SKY/WX    TMP DP  RH WIND       PRES   REMARKS
WALHALLA       LGT RAIN  57  57 100 N7        29.87S
GRAFTON AIRPOR PTSUNNY   63  61  94 CALM      29.86S
VALLEY CITY AR CLOUDY    59  59 100 NE8       29.85S
CANDO          NOT AVBL
CAVALIER APRT  CLOUDY    57  57 100 NW3       29.86S FOG
GWINNER        CLOUDY    61  59  94 NE6       29.82R
SHEYENNE NWR     N/A     60  58  94 E6        29.95S
ROLLA          FOG       50  50 100 N10       29.91R VSB 1/4
 ***** THE ABOVE OBSERVATIONS ARE NON NWS ARE NOT QUALITY
       CONTROLLED AND MAY MIS-REPORT RAIN FOR SNOW...
$$

  *****  WEATHER ACROSS NORTHERN MINNESOTA  *****

CITY           SKY/WX    TMP DP  RH WIND       PRES   REMARKS
FLAG ISLAND    CLOUDY    61  57  88 NE9       29.86S
WARROAD        CLOUDY    61  55  82 NE7       29.87S
ROSEAU         MOSUNNY   61  54  77 NE6       29.87R
HALLOCK        CLOUDY    63  57  82 CALM      29.85S
THF RVR FALLS  SUNNY     63  54  72 NE6       29.85S
BAUDETTE       LGT RAIN  59  57  93 NE6       29.85S
WASKISH        CLOUDY    57  55  94 NE6       29.83F
CROOKSTON      SUNNY     63  57  82 E5        29.83F
STEPHEN NDAWN    N/A     64  57  77 NE5         N/A
GREENBUSH NDAW   N/A     63  57  82 NE6         N/A
$$
  *****  WEATHER ACROSS CENTRAL AND WEST MINNESOTA  *****

CITY           SKY/WX    TMP DP  RH WIND       PRES   REMARKS
FOSSTON        CLOUDY    57  54  88 N6        29.82F
BEMIDJI        CLOUDY    57  53  88 N7        29.80F
PARK RAPIDS    CLOUDY    59  53  80 VRB6      29.80F
ELBOW LAKE     FAIR      59  56  89 NE8       29.79S
WADENA         MOSUNNY   57  54  88 NE6       29.79F
DETROIT LAKES  PTSUNNY   57  54  88 CALM      29.82S
MOORHEAD       MOSUNNY   61  57  88 NE6       29.81S
FERGUS FALLS   MOSUNNY   61  57  88 E7        29.77S
MORRIS MN      CLOUDY    61  57  88 NE8       29.77S
STAPLES        CLOUDY    55  54  94 N5        29.79F
$$
  *****  WEATHER ELSEWHERE ACROSS MINNESOTA  *****

CITY           SKY/WX    TMP DP  RH WIND       PRES   REMARKS
DULUTH         DRZL/FOG  50  49  96 SE6       29.78S VSB 1/2
INTRNTL FALLS  CLOUDY    58  55  90 NE5       29.84F
ELY            DRIZZLE   55  55 100 NE6       29.79S
CLOQUET        FOG       48  46  93 SE3       29.79R VSB<1/4
WHEATON        MOSUNNY   63  59  88 N5        29.81S
BRAINERD       CLOUDY    57  55  93 NE5       29.80R
HIBBING        CLOUDY    56  55  97 VRB3      29.78S
ALEXANDRIA     CLOUDY    58  55  90 NE9       29.79F
SAINT CLOUD    CLOUDY    57  56  96 NE7       29.77F
MINNEAPOLIS    CLOUDY    62  58  86 N10       29.74F
$$

  *****  WEATHER ACROSS SOUTH DAKOTA  *****

CITY           SKY/WX    TMP DP  RH WIND       PRES   REMARKS
SIOUX FALLS    RAIN      61  60  97 CALM      29.74R FOG
BROOKINGS      LGT RAIN  60  59  96 E7        29.76R
WATERTOWN      CLOUDY    60  58  92 NE9       29.78R FOG
HURON          CLOUDY    60  58  92 N5        29.77R
SISSETON         N/A     61  57  87 E6        29.79R
ABERDEEN       CLOUDY    61  58  90 NE7       29.80R FOG
MITCHELL       LGT RAIN  60  59  96 NW10      29.77R FOG
PIERRE         CLOUDY    58  53  84 NW8       29.81R
MOBRIDGE       MOSUNNY   58  52  80 NW7       29.81R
RAPID CITY     SUNNY     54  48  80 W6        29.90R
$$

  *****  SOME WEATHER IN NEARBY STATES *****

CITY           SKY/WX    TMP DP  RH WIND       PRES   REMARKS
GLASGOW MT     LGT RAIN  52  52 100 S6        29.87R VSB 1/2
GREAT FALLS MT SUNNY     44  35  70 S7        29.96R
CHEYENNE WY    CLOUDY    51  38  60 NW8       30.01R
SCOTTSBLUFF NE SUNNY     45  42  89 NW5       29.94R
OMAHA NE       PTSUNNY   64  58  80 S14       29.76R
DES MOINES IA  CLOUDY    65  60  84 S8        29.76R
DAVENPORT IA   CLOUDY    69  66  90 S8        29.82R
CHICAGO IL     CLOUDY    71  65  81 S16G24    29.88S
EAU CLAIRE WI  CLOUDY    65  62  90 N3        29.73F
LA CROSSE WI   CLOUDY    68  66  93 SW3       29.71S
$$

  *****  SOME NATIONAL WEATHER *****

CITY           SKY/WX    TMP DP  RH WIND       PRES   REMARKS
LA GUARDIA NY  PTSUNNY   78  66  66 SW7       30.12R
RALEIGH NC     MOSUNNY   73  64  73 CALM      30.19S
ATLANTA GA     MOSUNNY   72  61  68 S8        30.15R
NEW ORLEANS LA CLOUDY    77  71  82 SE8       29.94R
OKLAHOMA CITY  CLOUDY    65  64  97 S6        29.91R
ALBUQUERQUE NM SUNNY     52  30  43 N8        30.07R
SALT LAKE CITY PTCLDY    55  45  68 CALM      30.02R
LOS ANGELES CA CLOUDY    60  55  83 W3        29.85R
BOISE ID       MOCLDY    44  31  60 CALM      30.07R
SEATTLE WA     LGT RAIN  49  46  90 S8        30.10F
$$

*** WEATHER ACROSS MANITOBA...SASKATCHEWAN AND ONTARIO ***
                ***ONTARIO***

CITY           SKY/WX    TMP DP  RH WIND       PRES   REMARKS
GERALDTON      LGT RAIN  59  57  94 NE10G17   29.92F FOG
THUNDER BAY    LGT RAIN  59  57  94 NE5       29.82R FOG
SIOUX LOOKOUT  DRIZZLE   55  54  94 NE3       29.92R FOG
TORONTO        MOSUNNY   77  63  61 SE3       30.06S
BIG TROUT LK   CLOUDY    37  36  93 NE7       30.19S FOG
PICKLE LAKE    DRZL/FOG  43  43 100 NE14G20   30.03S VSB 1
DRYDEN         LGT RAIN  57  55  94 NE10      29.89S
KENORA         CLOUDY    57  55  94 E8        29.90R
$$
                *** MANITOBA***

CITY           SKY/WX    TMP DP  RH WIND       PRES   REMARKS
BRANDON        CLOUDY    52  50  93 NE18      29.93R
DAUPHIN        LGT RAIN  48  46  93 N10       29.99F FOG
ISLAND LAKE    CLOUDY    41  39  93 NE9G18    30.15R
PILOT MOUND      N/A     54  54 100 N8          N/A
THE PAS        CLOUDY    45  39  81 E6        30.09S
THOMPSON       DRIZZLE   37  36  93 E5        30.20S
WINNIPEG       CLOUDY    57  55  94 NE13      29.90R
LYNN LAKE      CLOUDY    37  34  87 SE13      30.16F
CHURCHILL      FLURRIES  32  28  86 S7        30.36F
$$
                ***SASKATCHEWAN***

CITY           SKY/WX    TMP DP  RH WIND       PRES   REMARKS
ESTEVAN        CLOUDY    50  48  93 E10       29.92S
KINDERSLEY     LGT RAIN  52  50  93 S9        29.85R
LLOYDMINSTER   LGT RAIN  54  52  94 SE8       29.85R
PRINCE ALBERT  CLOUDY    46  45  93 E10       29.98S FOG
REGINA         CLOUDY    50  48  93 E14       29.94R
YORKTON        CLOUDY    48  45  87 NE10      29.99R
N. BATTLEFORD  PTSUNNY   54  54 100 SE17G26   29.89R
LA RONGE       PTSUNNY   45  41  87 E10       30.02S
SASKATOON      CLOUDY    50  50 100 SE15G23   29.93R FOG
SWIFT CURRENT  LGT RAIN  52  52 100 SE8G17    29.85R
$$
NOTE: THESE ARE AUTOMATED STATIONS WITH LIMITED QUALITY CONTROL
      "FAIR" INDICATES FEW OR NO CLOUDS BELOW 12,000 FEET WITH NO
      SIGNIFICANT WEATHER AND/OR OBSTRUCTIONS TO VISIBILITY.
      SKY/WX - SKY CONDITION AND SIGNIFICANT WEATHER.
      TMP - AIR TEMPERATURE.    DP   - DEWPOINT TEMPERATURE.
      RH  - RELATIVE HUMIDITY.  PRES - PRESSURE.
      HX  - HEAT INDEX.         WCI  - WIND CHILL INDEX.
$




USA.gov is the U.S. government's official web portal to all federal, state and local government web resources and services.